Weather History for Oxford, CT

Change the Weather History Date:

Friday, January 4, 2013

  Actual Average Record
Temperature  
Mean Temperature 28 °F -  
Max Temperature 35 °F 34 °F 55 °F (1998)
Min Temperature 21 °F 21 °F -5 °F (2014)
Degree Days  
Heating Degree Days 37    
Moisture  
Dew Point 15 °F    
Average Humidity 58    
Maximum Humidity 69    
Minimum Humidity 51    
Precipitation  
Precipitation 0.00 in - - ()
Sea Level Pressure  
Sea Level Pressure 29.95 in    
Wind  
Wind Speed 6 mph (West)    
Max Wind Speed 12 mph    
Max Gust Speed 20 mph    
Visibility 10 miles    
Events      
Averages and records for this station are not official NWS values.
T = Trace of Precipitation, MM = Missing Value Source: NWS Daily Summary

Daily Weather History Graph

Daily Weather History Graph

Search for Another Location

Airport:

Trip Planner

Search our weather history database for the weather conditions in past years. The results will help you decide how hot, cold, wet, or windy it might be!

Date:

Astronomy

Jan. 04, 2013 Rise Set
Actual Time 7:19 AM EST 4:36 PM EST
Civil Twilight 6:47 AM EST 5:07 PM EST
Nautical Twilight 6:13 AM EST 5:42 PM EST
Astronomical Twilight 5:39 AM EST 6:15 PM EST
Moon No Moon Rise 10:54 AM EST (1/4)
Length of Visible Light 10h 19m
Length of Day
9h 17m
Waning Gibbous, 55% of the Moon is Illuminated
Jan 4
Waning Gibbous
Jan 4
Last Quarter
Jan 11
New
Jan 18
First Quarter
Jan 26
Full

Hourly Weather History & Observations

Time (EST) Temp. Windchill Dew Point Humidity Pressure Visibility Wind Dir Wind Speed Gust Speed Precip Events Conditions
12:15 AM 24.8 °F 20.5 °F 10.4 °F 54% 30.01 in 10.0 mi WNW 3.5 mph - N/A   Mostly Cloudy
12:55 AM 24.8 °F 19.1 °F 10.4 °F 54% 30.00 in 10.0 mi West 4.6 mph - N/A   Mostly Cloudy
1:15 AM 24.8 °F 17.9 °F 12.2 °F 59% 29.99 in 10.0 mi West 5.8 mph - N/A   Mostly Cloudy
1:35 AM 24.8 °F 16.9 °F 10.4 °F 54% 29.99 in 10.0 mi West 6.9 mph - N/A   Partly Cloudy
1:55 AM 24.8 °F 17.9 °F 12.2 °F 59% 29.99 in 10.0 mi West 5.8 mph - N/A   Clear
2:15 AM 24.8 °F 19.1 °F 12.2 °F 59% 30.00 in 10.0 mi West 4.6 mph - N/A   Mostly Cloudy
2:35 AM 24.8 °F - 12.2 °F 59% 30.00 in 10.0 mi Calm Calm - N/A   Mostly Cloudy
3:15 AM 21.2 °F 13.6 °F 10.4 °F 63% 29.99 in 10.0 mi WSW 5.8 mph - N/A   Mostly Cloudy
3:35 AM 24.8 °F 19.1 °F 14.0 °F 64% 29.99 in 10.0 mi West 4.6 mph - N/A   Scattered Clouds
4:35 AM 26.6 °F 20.0 °F 15.8 °F 64% 29.99 in 10.0 mi West 5.8 mph - N/A   Scattered Clouds
4:55 AM 26.6 °F 18.2 °F 15.8 °F 64% 29.99 in 10.0 mi West 8.1 mph - N/A   Clear
5:15 AM 26.6 °F 19.1 °F 15.8 °F 64% 29.99 in 10.0 mi West 6.9 mph - N/A   Clear
8:55 AM 26.6 °F 21.2 °F 17.6 °F 69% 30.02 in 10.0 mi SW 4.6 mph - N/A   Mostly Cloudy
9:45 AM 28.4 °F 23.3 °F 17.6 °F 64% 30.00 in 10.0 mi SW 4.6 mph - N/A   Overcast
10:50 AM 30.2 °F 23.4 °F 19.4 °F 64% 29.99 in 10.0 mi WSW 6.9 mph - N/A   Overcast
11:55 AM 33.8 °F 26.4 °F 19.4 °F 56% 29.95 in 10.0 mi West 9.2 mph - N/A   Mostly Cloudy
1:45 PM 35.6 °F 27.5 °F 19.4 °F 52% 29.90 in 10.0 mi West 11.5 mph 18.4 mph N/A   Scattered Clouds
2:45 PM 35.6 °F 28.6 °F 19.4 °F 52% 29.90 in 10.0 mi West 9.2 mph 18.4 mph N/A   Clear
3:45 PM 35.6 °F 28.6 °F 19.4 °F 52% 29.89 in 10.0 mi West 9.2 mph - N/A   Clear
4:45 PM 33.8 °F 26.4 °F 17.6 °F 52% 29.89 in 10.0 mi West 9.2 mph - N/A   Clear
5:45 PM 32.0 °F 24.2 °F 17.6 °F 55% 29.90 in 10.0 mi West 9.2 mph - N/A   Clear
6:45 PM 30.2 °F 24.3 °F 17.6 °F 60% 29.90 in 10.0 mi West 5.8 mph - N/A   Clear
7:45 PM 30.2 °F 22.6 °F 17.6 °F 60% 29.91 in 10.0 mi West 8.1 mph - N/A   Clear
9:15 PM 30.2 °F 20.8 °F 15.8 °F 55% 29.90 in 10.0 mi West 11.5 mph 18.4 mph N/A   Clear
9:35 PM 30.2 °F 22.6 °F 15.8 °F 55% 29.90 in 10.0 mi West 8.1 mph - N/A   Clear
9:55 PM 30.2 °F 22.6 °F 15.8 °F 55% 29.90 in 10.0 mi West 8.1 mph - N/A   Clear
10:15 PM 30.2 °F 21.3 °F 15.8 °F 55% 29.91 in 10.0 mi West 10.4 mph 17.3 mph N/A   Clear
10:55 PM 30.2 °F 21.3 °F 15.8 °F 55% 29.92 in 10.0 mi West 10.4 mph 19.6 mph N/A   Clear
11:15 PM 30.2 °F 21.9 °F 15.8 °F 55% 29.92 in 10.0 mi West 9.2 mph 19.6 mph N/A   Clear
11:35 PM 30.2 °F 21.9 °F 14.0 °F 51% 29.92 in 10.0 mi West 9.2 mph - N/A   Clear
11:55 PM 30.2 °F 21.9 °F 15.8 °F 55% 29.92 in 10.0 mi West 9.2 mph - N/A   Clear